SCP
-0 -0 0 -0 0 0 -0 -0 0 0 0 0 -0 0 0 0 0 0 0 -0 0 0 0 0 0 0 0 0 0 0 0 0 0 0 0 0 0 0 0 0 0 0 0 0 0 0 0 0 0
0 -0 -0 0 -0 -0 -0 -0 -0 0 0 0 0 0 0 0 0 0 0 0 -0 0 0 0 0 0 0 0 0 0 0 0 0 0 0 0 0 0 0 0 0 0 0 0 0 0 0 0 0
0 0 0 0 0 -0 0 -0 -0 0 0 0 0 0 0 0 0 0 0 0 0 0 0 0 0 0 0 0 0 0 0 0 0 0 0 0 0 0 0 0 0 0 0 0 0 0 0 0 0
0 0 0 0 -0 -0 0 -0 0 0 0 0 0 0 0 0 0 0 0 0 0 0 0 0 0 0 0 0 0 0 0 0 0 0 0 0 0 0 0 0 0 0 0 0 0 0 0 0 0
0 0 0 0 -0 -0 -0 0 0 0 0 0 0 0 0 0 0 0 0 0 -0 0 0 0 0 0 0 0 0 0 0 0 0 0 0 0 0 0 0 0 0 0 0 0 0 0 0 0 0
0 0 0 -0 0 0 0 0 0 0 0 0 0 0 0 0 0 0 0 0 0 0 0 0 0 0 0 0 0 0 0 0 0 0 0 0 0 0 0 0 0 0 0 0 0 0 0 0 0
0 0 -0 -0 -0 -0 -0 0 -0 0 0 0 0 0 0 0 0 0 0 0 0 0 0 0 0 0 0 0 0 0 0 0 0 0 0 0 0 0 0 0 0 0 0 0 0 0 0 0 0
0 0 0 -0 -0 0 -0 -0 -0 -0 0 0 0 0 0 0 0 0 0 0 0 0 0 0 0 0 0 0 0 0 0 0 0 0 0 0 0 0 0 0 0 0 0 0 0 0 0 0 0
0 0 0 0 0 0 -0 -0 -0 -0 0 0 0 0 0 0 0 0 0 0 0 0 0 0 0 0 0 0 0 0 0 0 0 0 0 0 0 0 0 0 0 0 0 0 0 0 0 0 0
0 0 0 0 0 0 -0 -0 -0 0 0 0 0 0 0 0 0 0 0 0 0 0 0 0 0 0 0 0 0 0 0 0 0 0 0 0 0 0 0 0 0 0 0 0 0 0 0 0 0
0 0 0 0 0 0 -0 -0 0 0 0 0 0 0 0 0 0 0 0 0 0 0 0 0 0 0 0 0 0 0 0 0 0 0 0 0 0 0 0 0 0 0 0 0 0 0 0 0 0
0 0 0 0 0 0 0 -0 -0 0 0 0 0 0 0 0 0 0 0 0 0 0 0 0 0 0 0 0 0 0 0 0 0 0 0 0 0 0 0 0 0 0 0 0 0 0 0 0 0
0 0 0 0 0 0 0 -0 0 -0 -0 0 -0 0 0 0 0 0 0 0 0 0 0 0 0 0 0 0 0 0 0 0 0 0 0 0 0 0 0 0 0 0 0 0 0 0 0 0 0
0 0 0 0 0 0 0 0 0 0 0 0 0 0 0 0 0 0 0 0 0 0 0 0 0 0 0 0 0 0 0 0 0 0 0 0 0 0 0 0 0 0 0 0 0 0 0 0 0
0 0 0 0 0 0 0 0 0 -0 -0 0 0 0 0 0 0 0 0 0 0 0 0 0 0 0 0 0 0 0 0 0 0 0 0 0 0 0 0 0 0 0 0 0 0 0 0 0 0
0 0 0 0 0 0 0 0 0 0 0 0 0 0 0 0 0 0 0 0 0 0 0 0 0 0 0 0 0 0 0 0 0 0 0 0 0 0 0 0 0 0 0 0 0 0 0 0 0
0 0 0 0 0 0 0 0 0 0 0 0 0 0 0 0 0 0 0 0 0 0 0 0 0 0 0 0 0 0 0 0 0 0 0 0 0 0 0 0 0 0 0 0 0 0 0 0 0
0 0 0 0 0 0 0 0 0 0 0 0 0 0 0 0 0 0 0 0 0 0 0 0 0 0 0 0 0 0 0 0 0 0 0 0 0 0 0 0 0 0 0 0 0 0 0 -0 0
0 0 0 0 0 0 0 0 0 0 0 0 0 0 0 0 0 0 0 0 0 0 0 0 0 0 0 0 0 0 0 0 0 0 0 0 0 0 0 0 0 0 0 0 0 0 0 -0 0
0 0 0 0 0 0 0 0 0 0 0 0 0 0 0 0 0 0 0 0 0 0 0 0 0 0 0 0 0 0 0 0 0 0 0 0 0 0 0 0 0 0 0 0 0 0 0 -0 0
0 0 0 0 0 0 0 0 0 0 0 0 0 0 0 0 0 0 0 0 0 0 0 0 0 0 0 0 0 0 0 0 0 0 0 0 0 0 0 0 0 0 0 0 0 0 0 0 0
0 0 0 0 0 0 0 0 0 0 0 0 0 0 0 0 0 0 0 0 0 0 0 0 0 0 0 0 0 0 0 0 0 0 0 0 0 0 0 0 0 0 0 0 0 0 0 0 0
0 0 0 0 0 0 0 0 0 0 0 0 0 0 0 0 0 0 0 0 0 0 0 0 0 0 0 0 0 0 0 0 0 0 0 0 0 0 0 0 0 0 0 0 0 0 0 0 0
0 0 0 0 0 0 0 0 0 0 0 0 0 0 0 0 0 0 0 0 0 0 0 0 0 0 0 0 0 0 0 0 0 0 0 0 0 0 0 0 0 0 0 0 0 -0 0 0 0
0 0 0 0 0 0 0 0 0 0 0 0 0 0 0 0 0 0 0 0 0 0 0 0 0 0 0 0 0 0 0 0 0 0 0 0 0 0 0 0 0 0 0 0 0 -0 -0 -0 0
0 0 0 0 0 0 0 0 0 0 0 0 0 0 0 0 0 0 0 0 0 0 0 0 0 0 0 0 0 0 0 0 0 0 0 0 0 0 -0 0 0 0 0 0 0 0 -0 -0 -0
0 0 0 0 0 0 0 0 0 0 0 0 0 0 0 0 0 0 0 0 0 0 0 0 0 0 0 0 0 0 0 0 0 0 0 0 0 0 0 0 0 0 0 -0 -0 0 0 -0 -0
0 0 0 0 0 0 0 0 0 0 0 0 0 0 0 0 0 0 0 0 0 0 0 0 0 0 0 0 0 0 0 0 0 0 0 0 0 0 0 0 0 0 0 -0 -0 -0 -0 -0 -0
0 0 0 0 0 0 0 0 0 0 0 0 0 0 0 0 0 0 0 0 0 0 0 0 0 0 0 0 0 0 0 0 0 0 0 0 0 0 0 0 0 0 0 -0 -0 0 0 -0 0
0 0 0 0 0 0 0 0 0 0 0 0 0 0 0 0 0 0 0 0 0 0 0 0 0 0 0 0 0 0 0 0 0 0 0 0 0 0 0 0 0 0 0 -0 -0 -0 -0 -0 -0
Wind_Speed_500mb
7 7 1 4 7 8 7 12 3 6 7 7 12 11 7 2 2 6 27 24 14 15 15 26 21 15 10 8 9 12 15 15 13 12 11 13 14 15 17 20 23 26 27 23 14 10 13 18 18
4 4 4 2 7 5 10 6 8 9 10 11 13 9 8 5 9 17 27 23 16 14 12 20 17 13 9 10 13 14 13 12 11 10 10 11 12 13 15 17 19 21 25 29 30 23 15 13 20
4 6 3 7 6 8 6 3 10 10 15 9 6 6 4 10 10 7 9 16 18 15 12 17 15 11 9 13 15 13 11 11 11 11 11 11 10 11 12 14 17 19 21 24 29 33 33 27 17
8 6 2 7 11 16 7 4 10 5 8 7 7 5 11 12 10 4 9 17 22 14 12 13 13 10 11 14 14 12 11 11 11 11 12 13 14 15 16 17 19 21 23 24 27 30 35 40 34
5 1 5 3 11 13 6 6 13 5 3 8 11 2 9 7 4 3 11 20 19 14 12 14 12 11 13 13 13 11 11 12 12 13 14 16 19 20 22 22 23 24 26 28 30 32 34 36 39
3 1 5 6 9 13 6 15 8 4 4 14 9 3 8 10 9 6 12 18 18 16 15 15 14 13 13 13 11 12 12 12 13 15 17 20 23 26 28 29 29 28 28 30 31 34 36 36 36
5 7 7 7 10 7 5 12 8 5 7 4 5 7 12 16 11 7 13 19 21 18 16 16 14 12 12 12 12 12 12 13 15 17 20 23 27 29 31 31 33 33 32 32 32 33 35 38 37
2 7 7 8 5 2 3 5 6 7 4 5 7 6 10 25 19 15 17 22 24 22 17 16 13 11 11 11 12 12 13 15 18 21 23 26 30 34 36 36 36 35 36 35 34 31 31 34 38
3 7 5 7 6 3 8 8 3 7 11 10 8 14 15 19 25 23 26 30 30 27 23 18 15 13 10 10 11 14 15 18 22 25 27 30 34 34 34 34 35 33 31 29 29 27 26 27 30
7 8 11 2 2 1 8 6 12 7 11 13 18 23 25 25 25 25 30 34 32 28 25 21 17 14 13 12 12 14 16 19 23 29 30 32 36 39 42 42 40 38 34 30 24 25 21 18 21
10 11 4 1 3 6 9 15 7 8 10 26 10 4 31 34 28 25 26 31 30 26 26 23 20 16 12 16 14 17 19 21 25 30 35 39 40 39 38 35 34 33 30 27 21 16 17 18 17
5 18 18 6 3 8 7 17 16 26 37 21 31 35 26 31 30 28 28 28 29 30 26 25 22 17 14 16 15 18 19 23 27 31 37 42 42 37 34 33 30 27 23 21 18 14 12 18 16
9 9 11 16 19 22 22 25 22 47 58 45 41 34 33 30 31 29 24 23 24 29 27 25 22 18 16 15 15 17 19 22 26 31 37 39 35 33 30 30 29 23 22 22 24 18 16 17 13
1 8 22 21 22 12 9 11 11 17 8 7 9 19 32 42 37 32 29 28 33 30 31 26 22 21 18 14 17 17 17 22 26 32 33 29 28 25 26 29 24 20 25 26 19 17 10 12 7
4 8 14 17 15 10 5 14 15 22 21 22 14 14 18 28 30 38 32 32 32 36 35 29 24 23 17 16 17 15 17 22 27 29 24 25 23 26 25 21 20 24 25 23 23 19 10 4 9
3 4 6 3 9 3 4 16 8 4 12 13 10 17 23 25 26 26 32 32 33 38 36 33 26 22 18 19 15 14 17 22 26 19 21 18 22 20 19 17 22 27 28 26 19 15 8 9 10
2 6 8 5 9 6 7 13 11 5 8 28 33 28 30 33 32 26 29 30 32 36 34 30 25 24 19 16 12 14 16 21 19 17 18 17 17 17 17 23 24 26 31 18 17 14 12 10 11
11 7 10 8 8 6 8 25 29 64 46 55 45 30 26 20 35 29 25 27 32 34 31 27 27 23 17 12 12 14 16 15 12 15 12 11 13 21 23 21 22 26 18 23 25 22 12 8 6
8 3 3 1 4 5 12 20 31 33 31 44 38 24 30 23 33 31 26 24 31 32 29 27 26 19 15 13 10 14 15 10 9 10 6 10 15 19 17 18 26 26 20 23 24 17 16 15 12
8 4 8 5 5 3 12 28 36 23 14 25 25 38 36 40 37 33 29 28 32 31 26 26 23 18 13 10 9 13 12 8 7 6 4 12 16 14 14 19 21 22 20 19 17 13 7 18 18
10 10 7 5 4 5 7 17 10 6 13 25 20 27 24 32 38 36 32 31 32 29 25 24 21 16 11 8 9 11 7 4 3 3 6 9 13 12 13 19 19 21 23 22 17 13 10 12 14
8 8 10 6 6 7 5 8 13 3 4 7 18 22 18 25 28 34 38 36 31 26 24 24 19 13 10 7 8 7 6 2 3 4 5 6 9 10 12 18 19 22 24 21 13 12 10 14 21
9 2 11 6 6 6 6 5 15 5 7 2 9 19 21 19 26 34 35 35 30 27 25 22 17 12 10 8 8 5 6 4 3 2 3 7 8 7 9 16 18 21 21 16 10 9 12 18 16
14 11 16 11 6 3 13 12 11 3 2 4 8 24 26 26 24 28 32 33 32 29 26 22 16 12 9 8 6 5 6 6 5 1 3 5 4 3 7 13 16 20 21 15 9 15 17 17 8
7 10 5 7 5 11 7 7 14 5 2 3 12 27 26 28 29 34 39 38 34 30 27 23 17 12 10 8 6 6 8 8 8 4 1 2 2 1 4 11 14 14 17 13 14 15 22 20 12
12 11 10 14 8 6 7 12 9 2 5 10 14 24 23 26 30 33 35 35 31 29 27 22 16 13 10 8 6 6 9 10 9 6 1 3 2 1 4 8 13 16 18 15 18 20 20 21 25
12 8 9 12 4 7 8 8 6 7 12 16 17 20 15 21 27 28 31 32 32 29 27 21 16 14 11 9 7 6 10 11 8 6 5 4 6 4 1 4 9 13 18 18 19 25 26 20 23
4 6 7 5 6 6 8 7 9 6 8 9 11 12 7 17 20 25 28 30 29 26 25 24 19 14 12 10 8 7 11 13 8 6 7 6 6 4 3 2 5 11 14 17 17 25 30 25 22
5 4 4 7 8 10 4 10 8 15 14 14 9 12 12 4 13 18 22 24 23 24 26 25 23 19 14 11 9 8 11 14 11 9 9 8 8 5 5 4 3 6 8 11 14 20 21 21 24
1 10 10 9 9 3 5 8 10 15 14 20 10 9 7 7 4 10 15 20 24 26 27 27 27 25 18 15 11 9 11 15 16 13 9 9 9 6 7 6 6 5 13 14 18 22 25 20 29
Wind_Direction_500mb
296 286 157 49 45 68 269 271 212 58 57 66 64 64 162 51 253 222 156 209 221 237 224 203 196 200 211 239 270 288 292 287 283 283 281 279 279 279 277 273 264 257 251 249 251 284 274 251 248
294 133 102 70 90 55 271 254 20 35 108 72 60 51 41 103 66 143 161 221 240 236 221 196 193 205 232 276 292 291 290 293 299 293 292 291 293 292 292 289 284 277 268 256 251 247 258 270 249
144 151 88 103 147 187 226 32 118 122 91 75 77 50 61 117 102 141 163 223 230 232 204 190 198 214 260 290 293 297 297 302 300 307 312 318 318 314 305 296 289 282 271 264 256 248 246 247 258
134 140 213 90 250 265 253 218 106 85 65 90 85 65 97 125 177 187 190 214 226 230 193 196 204 237 275 290 297 295 303 302 309 318 322 324 323 318 311 305 297 290 285 276 266 257 250 243 240
119 151 55 221 257 267 317 93 80 41 83 163 140 105 107 173 237 209 194 200 227 230 221 209 224 254 279 288 285 298 306 312 322 321 323 322 320 318 315 310 306 300 292 284 277 269 261 254 249
352 73 61 250 252 271 74 39 88 38 289 149 160 116 155 182 217 163 179 206 228 232 226 223 238 262 279 281 292 306 305 310 312 312 314 317 319 321 321 318 316 309 299 289 282 275 269 261 254
112 89 224 260 251 331 24 350 50 3 8 95 171 115 148 181 207 188 178 209 234 236 231 228 246 262 273 285 300 300 304 306 305 310 320 323 323 325 321 318 315 311 306 298 288 279 273 268 260
274 99 287 247 263 256 354 41 2 16 333 353 184 167 176 191 200 199 188 209 232 248 239 240 248 261 276 295 301 304 307 307 311 324 328 329 330 328 327 324 318 312 306 300 294 285 276 270 265
190 62 256 262 4 88 20 46 30 310 289 281 258 263 266 203 202 202 194 209 225 237 248 244 248 261 269 290 302 303 307 313 324 325 335 338 333 327 322 320 316 313 306 298 289 282 272 264 261
140 141 226 286 87 315 328 29 323 304 285 267 251 245 237 219 217 224 217 218 227 234 236 250 259 272 292 296 303 306 310 322 327 332 336 333 327 326 324 321 317 316 318 318 304 288 276 262 250
192 200 219 354 113 355 324 309 276 237 256 248 162 321 223 215 225 231 231 233 241 241 237 240 244 254 265 286 296 307 319 326 327 331 330 332 329 323 321 322 322 321 320 320 318 302 283 273 255
215 245 270 272 333 324 309 302 291 245 248 243 263 301 243 224 236 245 245 231 228 234 233 237 234 241 253 270 293 305 316 318 327 327 328 328 331 335 334 333 333 335 344 338 320 304 273 272 293
188 263 303 291 292 277 273 261 266 273 271 265 261 255 253 245 254 254 254 242 233 234 237 234 235 234 245 267 284 295 305 317 321 326 327 332 336 338 340 343 347 348 342 331 325 318 282 283 300
211 284 284 285 271 245 239 266 2 276 304 213 247 248 245 246 254 243 234 230 229 234 241 238 229 232 241 261 279 291 310 313 324 326 330 336 341 347 353 354 4 4 351 340 334 335 315 265 294
313 314 295 255 241 222 309 289 223 284 218 261 250 254 245 233 235 232 231 227 231 230 237 237 229 230 241 262 273 297 307 316 324 328 332 341 348 357 357 0 19 9 355 335 327 326 310 324 305
267 172 329 214 147 161 120 269 285 259 213 253 245 255 244 241 246 230 223 229 225 224 227 228 222 226 235 258 272 296 311 320 324 329 340 340 360 9 4 22 28 10 351 330 340 348 323 313 297
262 233 199 250 213 122 183 275 275 150 254 265 278 263 250 240 225 220 217 222 222 222 221 220 220 220 235 252 274 297 313 322 324 339 340 354 11 22 14 42 24 3 345 2 17 5 346 322 316
188 218 250 224 203 182 219 259 270 279 283 278 279 263 249 209 205 205 203 209 214 212 213 215 216 215 229 239 269 289 314 324 331 348 341 11 28 36 49 40 14 357 17 32 23 9 33 357 80
98 171 306 96 247 240 248 277 277 280 265 266 266 182 153 160 173 180 193 205 201 206 206 209 208 210 216 239 270 296 320 326 354 352 342 40 55 46 46 29 25 22 37 29 32 22 24 89 124
261 204 255 283 177 229 309 293 286 285 251 268 229 159 151 144 160 172 185 196 202 203 203 200 198 201 211 243 283 309 317 317 343 337 12 42 47 48 44 25 27 33 31 37 43 35 4 143 143
194 177 207 216 313 270 14 292 312 7 103 90 137 157 158 167 170 175 181 191 196 201 194 193 196 197 217 245 294 306 291 288 313 313 21 37 48 50 42 28 29 20 19 19 35 72 114 98 168
180 214 186 132 71 233 124 276 307 270 102 102 125 147 164 171 173 177 179 187 197 195 190 193 193 198 225 252 295 301 268 275 299 348 17 43 54 45 42 33 26 34 27 17 32 94 97 129 152
210 47 136 119 142 43 285 98 267 233 47 168 186 153 167 181 181 177 180 184 188 195 195 196 197 205 227 263 295 299 264 260 270 303 84 72 63 71 47 36 35 33 33 39 75 101 128 122 147
146 74 41 48 73 11 232 163 278 277 159 96 127 161 164 177 181 180 180 186 190 195 200 202 204 213 228 263 289 274 239 243 216 221 102 74 75 109 70 45 48 36 37 49 83 131 126 134 99
88 93 20 2 5 219 319 127 252 268 227 131 196 167 167 174 184 187 191 195 196 200 203 206 209 212 228 255 279 264 234 230 223 227 64 129 21 333 33 55 54 42 30 42 111 135 140 151 146
171 160 159 198 194 230 350 224 259 4 327 120 96 164 165 180 192 201 205 204 201 204 206 209 214 216 230 254 271 249 232 227 229 230 227 226 177 105 344 43 52 43 45 55 118 143 148 139 142
183 176 170 104 41 68 209 265 288 45 49 57 96 148 176 188 197 208 208 212 206 206 209 214 220 222 232 254 265 251 227 226 238 230 226 238 210 161 346 32 50 66 57 71 108 120 150 155 143
152 170 98 346 141 225 284 231 222 152 113 78 57 77 158 196 199 211 216 217 210 210 213 219 224 227 235 247 263 263 228 226 218 221 196 207 213 197 140 49 80 87 79 90 105 117 120 141 147
150 176 213 128 154 166 176 252 218 161 160 133 107 77 72 162 212 213 216 217 219 219 222 226 231 234 234 237 251 259 235 219 211 208 193 201 237 233 171 131 127 127 116 127 130 132 124 133 144
17 195 171 141 239 238 143 262 144 146 147 126 98 60 61 70 107 204 220 228 232 231 231 235 238 241 239 238 244 250 244 223 211 213 209 214 242 226 196 164 152 127 121 154 147 152 132 138 150
Wind_Speed_850mb
7 7 1 4 7 8 7 12 3 6 7 7 12 11 7 2 2 6 27 24 14 15 15 26 21 15 10 8 9 12 15 15 13 12 11 13 14 15 17 20 23 26 27 23 14 10 13 18 18
4 4 4 2 7 5 10 6 8 9 10 11 13 9 8 5 9 17 27 23 16 14 12 20 17 13 9 10 13 14 13 12 11 10 10 11 12 13 15 17 19 21 25 29 30 23 15 13 20
4 6 3 7 6 8 6 3 10 10 15 9 6 6 4 10 10 7 9 16 18 15 12 17 15 11 9 13 15 13 11 11 11 11 11 11 10 11 12 14 17 19 21 24 29 33 33 27 17
8 6 2 7 11 16 7 4 10 5 8 7 7 5 11 12 10 4 9 17 22 14 12 13 13 10 11 14 14 12 11 11 11 11 12 13 14 15 16 17 19 21 23 24 27 30 35 40 34
5 1 5 3 11 13 6 6 13 5 3 8 11 2 9 7 4 3 11 20 19 14 12 14 12 11 13 13 13 11 11 12 12 13 14 16 19 20 22 22 23 24 26 28 30 32 34 36 39
3 1 5 6 9 13 6 15 8 4 4 14 9 3 8 10 9 6 12 18 18 16 15 15 14 13 13 13 11 12 12 12 13 15 17 20 23 26 28 29 29 28 28 30 31 34 36 36 36
5 7 7 7 10 7 5 12 8 5 7 4 5 7 12 16 11 7 13 19 21 18 16 16 14 12 12 12 12 12 12 13 15 17 20 23 27 29 31 31 33 33 32 32 32 33 35 38 37
2 7 7 8 5 2 3 5 6 7 4 5 7 6 10 25 19 15 17 22 24 22 17 16 13 11 11 11 12 12 13 15 18 21 23 26 30 34 36 36 36 35 36 35 34 31 31 34 38
3 7 5 7 6 3 8 8 3 7 11 10 8 14 15 19 25 23 26 30 30 27 23 18 15 13 10 10 11 14 15 18 22 25 27 30 34 34 34 34 35 33 31 29 29 27 26 27 30
7 8 11 2 2 1 8 6 12 7 11 13 18 23 25 25 25 25 30 34 32 28 25 21 17 14 13 12 12 14 16 19 23 29 30 32 36 39 42 42 40 38 34 30 24 25 21 18 21
10 11 4 1 3 6 9 15 7 8 10 26 10 4 31 34 28 25 26 31 30 26 26 23 20 16 12 16 14 17 19 21 25 30 35 39 40 39 38 35 34 33 30 27 21 16 17 18 17
5 18 18 6 3 8 7 17 16 26 37 21 31 35 26 31 30 28 28 28 29 30 26 25 22 17 14 16 15 18 19 23 27 31 37 42 42 37 34 33 30 27 23 21 18 14 12 18 16
9 9 11 16 19 22 22 25 22 47 58 45 41 34 33 30 31 29 24 23 24 29 27 25 22 18 16 15 15 17 19 22 26 31 37 39 35 33 30 30 29 23 22 22 24 18 16 17 13
1 8 22 21 22 12 9 11 11 17 8 7 9 19 32 42 37 32 29 28 33 30 31 26 22 21 18 14 17 17 17 22 26 32 33 29 28 25 26 29 24 20 25 26 19 17 10 12 7
4 8 14 17 15 10 5 14 15 22 21 22 14 14 18 28 30 38 32 32 32 36 35 29 24 23 17 16 17 15 17 22 27 29 24 25 23 26 25 21 20 24 25 23 23 19 10 4 9
3 4 6 3 9 3 4 16 8 4 12 13 10 17 23 25 26 26 32 32 33 38 36 33 26 22 18 19 15 14 17 22 26 19 21 18 22 20 19 17 22 27 28 26 19 15 8 9 10
2 6 8 5 9 6 7 13 11 5 8 28 33 28 30 33 32 26 29 30 32 36 34 30 25 24 19 16 12 14 16 21 19 17 18 17 17 17 17 23 24 26 31 18 17 14 12 10 11
11 7 10 8 8 6 8 25 29 64 46 55 45 30 26 20 35 29 25 27 32 34 31 27 27 23 17 12 12 14 16 15 12 15 12 11 13 21 23 21 22 26 18 23 25 22 12 8 6
8 3 3 1 4 5 12 20 31 33 31 44 38 24 30 23 33 31 26 24 31 32 29 27 26 19 15 13 10 14 15 10 9 10 6 10 15 19 17 18 26 26 20 23 24 17 16 15 12
8 4 8 5 5 3 12 28 36 23 14 25 25 38 36 40 37 33 29 28 32 31 26 26 23 18 13 10 9 13 12 8 7 6 4 12 16 14 14 19 21 22 20 19 17 13 7 18 18
10 10 7 5 4 5 7 17 10 6 13 25 20 27 24 32 38 36 32 31 32 29 25 24 21 16 11 8 9 11 7 4 3 3 6 9 13 12 13 19 19 21 23 22 17 13 10 12 14
8 8 10 6 6 7 5 8 13 3 4 7 18 22 18 25 28 34 38 36 31 26 24 24 19 13 10 7 8 7 6 2 3 4 5 6 9 10 12 18 19 22 24 21 13 12 10 14 21
9 2 11 6 6 6 6 5 15 5 7 2 9 19 21 19 26 34 35 35 30 27 25 22 17 12 10 8 8 5 6 4 3 2 3 7 8 7 9 16 18 21 21 16 10 9 12 18 16
14 11 16 11 6 3 13 12 11 3 2 4 8 24 26 26 24 28 32 33 32 29 26 22 16 12 9 8 6 5 6 6 5 1 3 5 4 3 7 13 16 20 21 15 9 15 17 17 8
7 10 5 7 5 11 7 7 14 5 2 3 12 27 26 28 29 34 39 38 34 30 27 23 17 12 10 8 6 6 8 8 8 4 1 2 2 1 4 11 14 14 17 13 14 15 22 20 12
12 11 10 14 8 6 7 12 9 2 5 10 14 24 23 26 30 33 35 35 31 29 27 22 16 13 10 8 6 6 9 10 9 6 1 3 2 1 4 8 13 16 18 15 18 20 20 21 25
12 8 9 12 4 7 8 8 6 7 12 16 17 20 15 21 27 28 31 32 32 29 27 21 16 14 11 9 7 6 10 11 8 6 5 4 6 4 1 4 9 13 18 18 19 25 26 20 23
4 6 7 5 6 6 8 7 9 6 8 9 11 12 7 17 20 25 28 30 29 26 25 24 19 14 12 10 8 7 11 13 8 6 7 6 6 4 3 2 5 11 14 17 17 25 30 25 22
5 4 4 7 8 10 4 10 8 15 14 14 9 12 12 4 13 18 22 24 23 24 26 25 23 19 14 11 9 8 11 14 11 9 9 8 8 5 5 4 3 6 8 11 14 20 21 21 24
1 10 10 9 9 3 5 8 10 15 14 20 10 9 7 7 4 10 15 20 24 26 27 27 27 25 18 15 11 9 11 15 16 13 9 9 9 6 7 6 6 5 13 14 18 22 25 20 29
Wind_Direction_850mb
296 286 157 49 45 68 269 271 212 58 57 66 64 64 162 51 253 222 156 209 221 237 224 203 196 200 211 239 270 288 292 287 283 283 281 279 279 279 277 273 264 257 251 249 251 284 274 251 248
294 133 102 70 90 55 271 254 20 35 108 72 60 51 41 103 66 143 161 221 240 236 221 196 193 205 232 276 292 291 290 293 299 293 292 291 293 292 292 289 284 277 268 256 251 247 258 270 249
144 151 88 103 147 187 226 32 118 122 91 75 77 50 61 117 102 141 163 223 230 232 204 190 198 214 260 290 293 297 297 302 300 307 312 318 318 314 305 296 289 282 271 264 256 248 246 247 258
134 140 213 90 250 265 253 218 106 85 65 90 85 65 97 125 177 187 190 214 226 230 193 196 204 237 275 290 297 295 303 302 309 318 322 324 323 318 311 305 297 290 285 276 266 257 250 243 240
119 151 55 221 257 267 317 93 80 41 83 163 140 105 107 173 237 209 194 200 227 230 221 209 224 254 279 288 285 298 306 312 322 321 323 322 320 318 315 310 306 300 292 284 277 269 261 254 249
352 73 61 250 252 271 74 39 88 38 289 149 160 116 155 182 217 163 179 206 228 232 226 223 238 262 279 281 292 306 305 310 312 312 314 317 319 321 321 318 316 309 299 289 282 275 269 261 254
112 89 224 260 251 331 24 350 50 3 8 95 171 115 148 181 207 188 178 209 234 236 231 228 246 262 273 285 300 300 304 306 305 310 320 323 323 325 321 318 315 311 306 298 288 279 273 268 260
274 99 287 247 263 256 354 41 2 16 333 353 184 167 176 191 200 199 188 209 232 248 239 240 248 261 276 295 301 304 307 307 311 324 328 329 330 328 327 324 318 312 306 300 294 285 276 270 265
190 62 256 262 4 88 20 46 30 310 289 281 258 263 266 203 202 202 194 209 225 237 248 244 248 261 269 290 302 303 307 313 324 325 335 338 333 327 322 320 316 313 306 298 289 282 272 264 261
140 141 226 286 87 315 328 29 323 304 285 267 251 245 237 219 217 224 217 218 227 234 236 250 259 272 292 296 303 306 310 322 327 332 336 333 327 326 324 321 317 316 318 318 304 288 276 262 250
192 200 219 354 113 355 324 309 276 237 256 248 162 321 223 215 225 231 231 233 241 241 237 240 244 254 265 286 296 307 319 326 327 331 330 332 329 323 321 322 322 321 320 320 318 302 283 273 255
215 245 270 272 333 324 309 302 291 245 248 243 263 301 243 224 236 245 245 231 228 234 233 237 234 241 253 270 293 305 316 318 327 327 328 328 331 335 334 333 333 335 344 338 320 304 273 272 293
188 263 303 291 292 277 273 261 266 273 271 265 261 255 253 245 254 254 254 242 233 234 237 234 235 234 245 267 284 295 305 317 321 326 327 332 336 338 340 343 347 348 342 331 325 318 282 283 300
211 284 284 285 271 245 239 266 2 276 304 213 247 248 245 246 254 243 234 230 229 234 241 238 229 232 241 261 279 291 310 313 324 326 330 336 341 347 353 354 4 4 351 340 334 335 315 265 294
313 314 295 255 241 222 309 289 223 284 218 261 250 254 245 233 235 232 231 227 231 230 237 237 229 230 241 262 273 297 307 316 324 328 332 341 348 357 357 0 19 9 355 335 327 326 310 324 305
267 172 329 214 147 161 120 269 285 259 213 253 245 255 244 241 246 230 223 229 225 224 227 228 222 226 235 258 272 296 311 320 324 329 340 340 360 9 4 22 28 10 351 330 340 348 323 313 297
262 233 199 250 213 122 183 275 275 150 254 265 278 263 250 240 225 220 217 222 222 222 221 220 220 220 235 252 274 297 313 322 324 339 340 354 11 22 14 42 24 3 345 2 17 5 346 322 316
188 218 250 224 203 182 219 259 270 279 283 278 279 263 249 209 205 205 203 209 214 212 213 215 216 215 229 239 269 289 314 324 331 348 341 11 28 36 49 40 14 357 17 32 23 9 33 357 80
98 171 306 96 247 240 248 277 277 280 265 266 266 182 153 160 173 180 193 205 201 206 206 209 208 210 216 239 270 296 320 326 354 352 342 40 55 46 46 29 25 22 37 29 32 22 24 89 124
261 204 255 283 177 229 309 293 286 285 251 268 229 159 151 144 160 172 185 196 202 203 203 200 198 201 211 243 283 309 317 317 343 337 12 42 47 48 44 25 27 33 31 37 43 35 4 143 143
194 177 207 216 313 270 14 292 312 7 103 90 137 157 158 167 170 175 181 191 196 201 194 193 196 197 217 245 294 306 291 288 313 313 21 37 48 50 42 28 29 20 19 19 35 72 114 98 168
180 214 186 132 71 233 124 276 307 270 102 102 125 147 164 171 173 177 179 187 197 195 190 193 193 198 225 252 295 301 268 275 299 348 17 43 54 45 42 33 26 34 27 17 32 94 97 129 152
210 47 136 119 142 43 285 98 267 233 47 168 186 153 167 181 181 177 180 184 188 195 195 196 197 205 227 263 295 299 264 260 270 303 84 72 63 71 47 36 35 33 33 39 75 101 128 122 147
146 74 41 48 73 11 232 163 278 277 159 96 127 161 164 177 181 180 180 186 190 195 200 202 204 213 228 263 289 274 239 243 216 221 102 74 75 109 70 45 48 36 37 49 83 131 126 134 99
88 93 20 2 5 219 319 127 252 268 227 131 196 167 167 174 184 187 191 195 196 200 203 206 209 212 228 255 279 264 234 230 223 227 64 129 21 333 33 55 54 42 30 42 111 135 140 151 146
171 160 159 198 194 230 350 224 259 4 327 120 96 164 165 180 192 201 205 204 201 204 206 209 214 216 230 254 271 249 232 227 229 230 227 226 177 105 344 43 52 43 45 55 118 143 148 139 142
183 176 170 104 41 68 209 265 288 45 49 57 96 148 176 188 197 208 208 212 206 206 209 214 220 222 232 254 265 251 227 226 238 230 226 238 210 161 346 32 50 66 57 71 108 120 150 155 143
152 170 98 346 141 225 284 231 222 152 113 78 57 77 158 196 199 211 216 217 210 210 213 219 224 227 235 247 263 263 228 226 218 221 196 207 213 197 140 49 80 87 79 90 105 117 120 141 147
150 176 213 128 154 166 176 252 218 161 160 133 107 77 72 162 212 213 216 217 219 219 222 226 231 234 234 237 251 259 235 219 211 208 193 201 237 233 171 131 127 127 116 127 130 132 124 133 144
17 195 171 141 239 238 143 262 144 146 147 126 98 60 61 70 107 204 220 228 232 231 231 235 238 241 239 238 244 250 244 223 211 213 209 214 242 226 196 164 152 127 121 154 147 152 132 138 150